TimeEDT,TemperatureF,Dew PointF,Humidity,Sea Level PressureIn,VisibilityMPH,Wind Direction,Wind SpeedMPH,Gust SpeedMPH,PrecipitationIn,Events,Conditions,WindDirDegrees,DateUTC
1:13 AM,39.2,35.6,87,29.92,10.0,WSW,8.1,-,N/A,,Mostly Cloudy,240,2012-10-07 05:13:00
1:21 AM,39.2,35.6,87,29.92,10.0,WSW,5.8,-,N/A,,Scattered Clouds,250,2012-10-07 05:21:00
1:51 AM,39.0,35.1,86,29.96,10.0,SW,5.8,-,N/A,,Partly Cloudy,230,2012-10-07 05:51:00
2:17 AM,39.2,35.6,87,29.93,10.0,WSW,4.6,-,N/A,,Mostly Cloudy,240,2012-10-07 06:17:00
3:22 AM,37.4,35.6,93,29.93,10.0,WSW,3.5,-,N/A,,Mostly Cloudy,250,2012-10-07 07:22:00
3:51 AM,39.0,35.1,86,29.97,10.0,Variable,4.6,-,N/A,,Overcast,0,2012-10-07 07:51:00
4:51 AM,39.0,35.1,86,30.00,10.0,WSW,8.1,-,N/A,,Overcast,250,2012-10-07 08:51:00
5:51 AM,37.9,35.1,89,30.01,10.0,West,4.6,-,N/A,,Mostly Cloudy,260,2012-10-07 09:51:00
6:51 AM,37.9,35.1,89,30.03,10.0,WSW,4.6,-,N/A,,Overcast,250,2012-10-07 10:51:00
7:51 AM,37.9,35.1,89,30.02,10.0,WSW,4.6,-,N/A,,Mostly Cloudy,250,2012-10-07 11:51:00
7:59 AM,37.4,35.6,93,29.99,10.0,SW,3.5,-,N/A,,Scattered Clouds,230,2012-10-07 11:59:00
8:51 AM,39.0,35.1,86,30.03,10.0,SW,3.5,-,N/A,,Scattered Clouds,230,2012-10-07 12:51:00
9:21 AM,39.2,35.6,87,30.00,10.0,SW,4.6,-,N/A,,Overcast,230,2012-10-07 13:21:00
9:51 AM,39.9,34.0,79,30.03,10.0,Variable,3.5,-,N/A,,Overcast,0,2012-10-07 13:51:00
10:35 AM,42.8,33.8,70,30.01,10.0,WSW,6.9,-,N/A,,Scattered Clouds,240,2012-10-07 14:35:00
10:51 AM,43.0,34.0,71,30.04,10.0,SW,10.4,-,N/A,,Mostly Cloudy,230,2012-10-07 14:51:00
11:42 AM,44.6,33.8,66,30.02,10.0,SW,11.5,19.6,N/A,,Mostly Cloudy,220,2012-10-07 15:42:00
11:51 AM,45.0,32.0,60,30.05,10.0,Variable,4.6,-,N/A,,Mostly Cloudy,0,2012-10-07 15:51:00
12:02 PM,44.6,32.0,61,30.03,10.0,SSW,10.4,-,N/A,,Mostly Cloudy,210,2012-10-07 16:02:00
12:51 PM,45.0,30.0,56,30.05,10.0,West,9.2,-,N/A,,Overcast,280,2012-10-07 16:51:00
1:51 PM,48.0,30.0,50,30.03,10.0,Variable,6.9,-,N/A,,Mostly Cloudy,0,2012-10-07 17:51:00
2:51 PM,46.9,28.0,48,30.02,10.0,SW,5.8,-,N/A,,Partly Cloudy,230,2012-10-07 18:51:00
3:51 PM,48.0,27.0,44,30.01,10.0,WSW,10.4,16.1,N/A,,Scattered Clouds,240,2012-10-07 19:51:00
4:51 PM,46.0,28.9,51,30.00,10.0,Calm,Calm,-,N/A,,Overcast,0,2012-10-07 20:51:00
5:51 PM,45.0,30.0,56,30.01,10.0,Calm,Calm,-,N/A,,Mostly Cloudy,0,2012-10-07 21:51:00
6:51 PM,43.0,33.1,68,30.02,10.0,Calm,Calm,-,N/A,,Overcast,0,2012-10-07 22:51:00
8:46 PM,41.0,33.8,76,30.02,8.0,NE,4.6,-,0.00,Rain,Light Rain,50,2012-10-08 00:46:00
8:51 PM,39.9,33.1,77,30.06,4.0,ENE,4.6,-,0.01,Rain,Rain,70,2012-10-08 00:51:00
9:51 PM,37.9,37.0,97,30.06,8.0,Calm,Calm,-,0.02,,Overcast,0,2012-10-08 01:51:00
10:41 PM,39.2,37.4,93,30.02,7.0,Calm,Calm,-,0.01,Rain,Light Rain,0,2012-10-08 02:41:00
10:51 PM,37.9,37.0,97,30.06,6.0,Calm,Calm,-,0.01,Rain,Light Rain,0,2012-10-08 02:51:00
11:43 PM,37.4,37.4,100,30.03,6.0,Calm,Calm,-,0.02,Rain,Light Rain,0,2012-10-08 03:43:00
11:51 PM,37.9,37.0,97,30.07,7.0,Calm,Calm,-,0.02,Rain,Light Rain,0,2012-10-08 03:51:00